Regional Weather Roundup
Issued by NWS

Home | Current Version | Previous Version | Graphics & Text | Print | Product List | Glossary Off
Versions: 1 2 3 4 5 6 7 8 9 10 11 12 13 14 15 16 17 18 19 20 21 22 23 24 25 26 27 28 29 30 31 32 33 34 35 36 37 38 39 40 41 42 43 44 45 46 47 48 49 50

000
ASUS43 KMKX 300200
RWRWI

WISCONSIN REGIONAL WEATHER ROUNDUP
NATIONAL WEATHER SERVICE MILWAUKEE/SULLIVAN WI
900 PM CDT MON AUG 29 2016

NOTE: "FAIR" INDICATES FEW OR NO CLOUDS BELOW 12,000 FEET WITH NO
SIGNIFICANT WEATHER AND/OR OBSTRUCTIONS TO VISIBILITY.

WIZ001-002-006>008-014>016-023>028-300300-
NORTHWEST WISCONSIN

CITY           SKY/WX    TMP DP  RH WIND       PRES   REMARKS
SUPERIOR ARPT  CLOUDY    74  66  75 SW13G22   30.11R
ASHLAND        TSTM      68  67  96 S7        30.14R
HAYWARD        TSTM      73  70  90 CALM      30.16R
SIREN          RAIN      70  67  91 E3        30.14F
CUMBERLAND     CLOUDY    72  68  88 CALM      30.16R
RICE LAKE      CLOUDY    72  68  87 E3        30.17R
CHETEK         NOT AVBL
LADYSMITH      CLOUDY    73  70  91 CALM      30.19R
EAU CLAIRE     NOT AVBL
MENOMONIE      CLEAR     74  70  87 S7        30.16R
NEW RICHMOND   PTCLDY    75  72  91 SE3       30.15R
OSCEOLA        CLOUDY    74  74 100 SE3       30.15S
$$

WIZ003>005-009-010-017-018-300300-
NORTH CENTRAL WISCONSIN

CITY           SKY/WX    TMP DP  RH WIND       PRES   REMARKS
MANITOWISH WTR NOT AVBL
ARBOR VITAE    CLOUDY    72  68  88 CALM      30.17S
WOODRUFF       CLOUDY    72  68  88 CALM      30.17S
RHINELANDER    CLOUDY    73  71  93 SW7       30.18S
EAGLE RIVER    CLOUDY    65  65 100 SW3       30.16S FOG
LAND O LAKES   CLOUDY    73  66  79 CALM      30.16F
PHILLIPS       CLOUDY    71  70  95 SW3       30.17S
TOMAHAWK       CLOUDY    69  67  94 CALM      30.18S
MEDFORD        MOCLDY    73  73 100 S5        30.19R
MERRILL        PTCLDY    73  72  95 SW5       30.19R
$$

WIZ029-030-035-036-043>047-300300-
CENTRAL WISCONSIN

CITY           SKY/WX    TMP DP  RH WIND       PRES   REMARKS
WAUSAU         CLEAR     74  69  85 S3        30.17R
MOSINEE        CLEAR     70  70 100 CALM      30.19R
MARSHFIELD     CLEAR     72  68  87 SW5       30.19R
STEVENS POINT  PTCLDY    72  69  91 S3        30.19R
WAUPACA        PTCLDY    75  74  96 CALM      30.18R
WAUTOMA        PTCLDY    70  69  97 CALM      30.18R
WISC RAPIDS    CLEAR     72  71  97 CALM      30.20R
CAMP DOUGLAS   NOT AVBL
$$

WIZ011>013-019>022-031-037>040-048>050-300300-
NORTHEAST WISCONSIN

CITY           SKY/WX    TMP DP  RH WIND       PRES   REMARKS
ANTIGO         CLEAR     69  66  91 CALM      30.19S
SHAWANO        PTCLDY    77  71  81 CALM      30.16S
OCONTO         NOT AVBL
STURGEON BAY   MOCLDY    71  65  81 S8        30.16S
GREEN BAY      PTCLDY    73  71  93 S5        30.16S
MANITOWOC      NOT AVBL
APPLETON       MOCLDY    73  66  78 VRB5      30.16S
CLINTONVILLE   PTCLDY    73  70  88 SW5       30.16S
OSHKOSH        PTCLDY    72  69  90 S5        30.17R
$$

WIZ032>034-041-042-053>061-300300-
SOUTHWEST WISCONSIN

CITY           SKY/WX    TMP DP  RH WIND       PRES   REMARKS
LA CROSSE      PTCLDY    76  72  87 S5        30.16R
SPARTA         CLEAR     70  69  95 SE3       30.18R
VIROQUA        CLEAR     71  71 100 S3        30.20S
BOSCOBEL       PTCLDY    73  72  96 CALM      30.18R FOG
PRAIRIE DU CHI CLOUDY    74  72  92 CALM      30.17S
PLATTEVILLE    MOCLDY    75  75  99 CALM      30.19R
$$

WIZ056-057-062-063-064-067-068-300300-
SOUTH CENTRAL WISCONSIN

CITY           SKY/WX    TMP DP  RH WIND       PRES   REMARKS
REEDSBURG      NOT AVBL
BARABOO/DELLS  CLEAR     72  69  89 CALM      30.18R
LONE ROCK      NOT AVBL
MINERAL POINT  CLOUDY    73  73 100 CALM      30.19R
MADISON        PTCLDY    76  69  79 CALM      30.16F
MIDDLETON      PTCLDY    75  73  91 CALM      30.18S
WATERTOWN      CLOUDY    73  70  91 CALM      30.16F
MONROE         CLOUDY    70  68  94 SW7       30.17F
JANESVILLE     PTCLDY    72  70  94 SE5       30.15F
$$

WIZ051-052-058>065-066-070>072-300300-
SOUTHEAST WISCONSIN

CITY           SKY/WX    TMP DP  RH WIND       PRES   REMARKS
MILWAUKEE      MOCLDY    75  70  84 SE6       30.17F
WAUKESHA       PTCLDY    72  66  83 S6        30.18F
MILWAUKEE/TIMM CLEAR     75  64  69 CALM      30.18S
RACINE         CLOUDY    74  70  87 SE5       30.18F
BURLINGTON     CLOUDY    69  67  93 CALM      30.17F
KENOSHA        MOCLDY    75  70  84 SE5       30.17F
FOND DU LAC    PTCLDY    72  68  87 CALM      30.18R
SHEBOYGAN      PTCLDY    68  63  84 SW3       30.18S
WEST BEND      PTCLDY    70  64  83 CALM      30.18F
JUNEAU         CLOUDY    73  68  85 S6        30.19S
$$

LSZ147-162-300300-
LAKE SUPERIOR

STATION/POSITION TIME  TEMP    WIND        PRES    WAVE
                       AIR SEA DIR/SP/G            HT/PER
                 (UTC) (F)     (DEG/KT/KT) (MB)    (FT/S)
W MID LAKE BUOY  0050   69 69  310/  2/  4 1017.8F   1
DEVILS ISLAND    0100   76     230/  8/  9 1018.1S
PORT WING        0140   76     190/  6/  8 1019.3R
SAXON HARBOR     0100   74     210/  9/ 17 1019.0
$$

LMZ867-665-643>646-300300-
LAKE MICHIGAN

STATION/POSITION TIME  TEMP    WIND        PRES    WAVE
                       AIR SEA DIR/SP/G            HT/PER
                 (UTC) (F)     (DEG/KT/KT) (MB)    (FT/S)
CHAMBERS ISLAND  0100   74     160/  4/ 10 1020.3
S GREEN BAY BUOY 0100   77 74  180/ 10/ 12 1020.4
N MID LAKE BUOY  0050   72 71  200/ 12/ 14 1020.3F   1/ 3
NORTHPORT PIER   0100   73     170/  4/  7 1020.7S
SISTER BAY       0037   74     180/ 12/ 15   N/A
ALGOMA LAKESHORE 0015          210/  9/ 10   N/A
KEWAUNEE LAKESHO 0100   66     180/  7/  8 1021.2F
SHEBOYGAN LAKESH 0100   72     170/  4/  5 1021.2F
PORT WASHINGTON  0100   72     180/  4/  5 1022.4S
ATWATER BUOY     0100   70     170/  6/  6   N/A
MILWAUKEE LAKESH 0110   71     150/  3/  4   N/A
S MID LAKE BUOY  0050   76 78   80/  4/  4 1021.6F   0
KENOSHA   LAKESH 0100   74        CALM     1021.3F
$$

TC  - TEMPERATURE IN CELSIUS
VSB - VISIBILITY IN STATUTE MILES
WCI - WIND CHILL INDEX
HX  - HEAT INDEX





USA.gov is the U.S. government's official web portal to all federal, state and local government web resources and services.